TimePDT,TemperatureF,Dew PointF,Humidity,Sea Level PressureIn,VisibilityMPH,Wind Direction,Wind SpeedMPH,Gust SpeedMPH,PrecipitationIn,Events,Conditions,WindDirDegrees,DateUTC
12:52 AM,64.9,28.9,26,29.95,10.0,WNW,4.6,-,N/A,,Clear,300,2013-03-15 07:52:00
1:52 AM,66.0,28.9,25,29.94,10.0,NW,5.8,-,N/A,,Clear,320,2013-03-15 08:52:00
2:52 AM,61.0,28.9,30,29.92,10.0,North,6.9,-,N/A,,Clear,360,2013-03-15 09:52:00
3:52 AM,59.0,28.9,32,29.90,10.0,Calm,Calm,-,N/A,,Clear,0,2013-03-15 10:52:00
4:52 AM,57.0,30.0,36,29.91,10.0,NW,4.6,-,N/A,,Clear,310,2013-03-15 11:52:00
5:52 AM,61.0,30.0,31,29.92,10.0,NNW,6.9,-,N/A,,Clear,340,2013-03-15 12:52:00
6:52 AM,60.1,30.9,33,29.92,10.0,Calm,Calm,-,N/A,,Clear,0,2013-03-15 13:52:00
7:52 AM,59.0,33.1,38,29.94,10.0,Calm,Calm,-,N/A,,Clear,0,2013-03-15 14:52:00
8:52 AM,69.1,33.1,26,29.94,10.0,Calm,Calm,-,N/A,,Clear,0,2013-03-15 15:52:00
9:52 AM,77.0,32.0,19,29.96,10.0,South,4.6,-,N/A,,Clear,170,2013-03-15 16:52:00
10:52 AM,78.1,37.0,23,29.96,10.0,South,5.8,-,N/A,,Clear,180,2013-03-15 17:52:00
11:52 AM,82.9,35.1,18,29.95,10.0,Calm,Calm,-,N/A,,Clear,0,2013-03-15 18:52:00
12:52 PM,87.1,33.1,15,29.91,10.0,Variable,3.5,-,N/A,,Clear,0,2013-03-15 19:52:00
1:52 PM,88.0,37.0,16,29.88,10.0,ESE,4.6,-,N/A,,Clear,120,2013-03-15 20:52:00
2:52 PM,89.1,37.9,16,29.85,10.0,Variable,3.5,-,N/A,,Clear,0,2013-03-15 21:52:00
3:52 PM,91.9,33.1,12,29.83,10.0,SSE,4.6,-,N/A,,Clear,160,2013-03-15 22:52:00
4:52 PM,93.0,32.0,12,29.80,10.0,SE,6.9,-,N/A,,Clear,130,2013-03-15 23:52:00
5:52 PM,91.9,34.0,13,29.79,10.0,SE,9.2,-,N/A,,Clear,140,2013-03-16 00:52:00
6:52 PM,86.0,39.9,20,29.78,10.0,SSE,6.9,-,N/A,,Clear,160,2013-03-16 01:52:00
7:52 PM,82.9,36.0,19,29.78,10.0,SSW,10.4,-,N/A,,Clear,200,2013-03-16 02:52:00
8:52 PM,84.0,32.0,15,29.78,10.0,SSW,11.5,-,N/A,,Clear,210,2013-03-16 03:52:00
9:52 PM,81.0,32.0,17,29.80,10.0,SSW,8.1,-,N/A,,Clear,210,2013-03-16 04:52:00
10:52 PM,79.0,33.1,19,29.80,10.0,WSW,3.5,-,N/A,,Clear,240,2013-03-16 05:52:00
11:52 PM,72.0,37.9,29,29.79,10.0,SSE,4.6,-,N/A,,Clear,150,2013-03-16 06:52:00